Hourly Data Report for December 28, 2019

MUSKOKA
ONTARIO
Current Station Operator: NAVCAN

44°58'29.000" N
79°18'12.000" W
281.90 m
6115529
71532
YQA

Download Data

Hourly Data (December 2019)
Hourly Data Report for December 28, 2019
TIME
LST
Temp Definition
°C
Dew Point Definition
°C
Rel Hum Definition
%
Precip. Amount Definition
mm

Wind Dir Definition
10's deg

Wind Spd Definition
km/h
Visibility Definition
km
Stn Press Definition
kPa
Hmdx Definition


Wind Chill Definition


Weather Definition


00:00 1.1 -1.0 86 0.0 28 8 16.1 98.62     LegendNANA
01:00 1.0 -0.8 88 0.0 27 8 16.1 98.67     Rain
02:00 0.8 -0.7 90 0.0 29 13 14.5 98.73     Rain
03:00 0.8 -1.7 83 0.0 29 13 16.1 98.81     LegendNANA
04:00 0.4 -2.3 82 0.0 30 9 16.1 98.82     LegendNANA
05:00 0.3 -3.3 77 0.0 29 11 16.1 98.86     LegendNANA
06:00 0.0 -4.1 74 0.0 29 18 16.1 98.91   -5 LegendNANA
07:00 -0.3 -4.0 76 0.0 29 11 16.1 98.95   -4 LegendNANA
08:00 -0.4 -3.8 78 0.0 30 8 16.1 98.95   -3 LegendNANA
09:00 -0.2 -3.8 77 0.0 29 15 16.1 99.01   -5 LegendNANA
10:00 0.1 -3.5 77 0.0 30 9 16.1 99.02     LegendNANA
11:00 0.7 -3.4 74 0.0 29 9 16.1 98.96     LegendNANA
12:00 1.1 -3.2 73 0.0 24 9 16.1 98.96     LegendNANA
13:00 1.2 -3.7 70 0.0 25 9 16.1 98.87     LegendNANA
14:00 0.7 -4.0 71 0.0 29 15 16.1 98.91     LegendNANA
15:00 0.7 -3.7 72 0.0 27 13 16.1 98.93     LegendNANA
16:00 0.5 -3.8 73 0.0 26 15 16.1 98.92     LegendNANA
17:00 0.3 -3.6 75 0.0 28 11 16.1 98.91     LegendNANA
18:00 0.1 -3.6 76 0.0 26 9 16.1 98.91     LegendNANA
19:00 -0.8 -3.5 82 0.0 23 5 16.1 98.89   -2 LegendNANA
20:00 -2.5 -4.2 88 0.0   0 16.1 98.87     LegendNANA
21:00 -3.2 -4.0 94 0.0   0 16.1 98.90     LegendNANA
22:00 -3.1 -3.9 94 0.0   0 16.1 98.90     LegendNANA
23:00 -4.1 -4.7 96 0.0   0 16.1 98.92     LegendNANA

Notes on Data Quality.

Legend

  • E = Estimated
  • M = Missing
  • NA = Not Available*
  • [empty] = Indicates an unobserved value
Date modified: